Weather History for Klawock, AK

Change the Weather History Date:

Saturday, November 23, 2013

  Actual Average Record
Temperature  
Mean Temperature 39 °F -  
Max Temperature 48 °F 40 °F 53 °F (2005)
Min Temperature 30 °F 33 °F 19 °F (2006)
Degree Days  
Heating Degree Days 26    
Moisture  
Dew Point 41 °F    
Average Humidity 95    
Maximum Humidity 100    
Minimum Humidity 85    
Precipitation  
Precipitation 0.37 in - - ()
Sea Level Pressure  
Sea Level Pressure 30.04 in    
Wind  
Wind Speed 4 mph (SW)    
Max Wind Speed 10 mph    
Max Gust Speed 21 mph    
Visibility 7 miles    
Events Rain    
Averages and records for this station are not official NWS values.
T = Trace of Precipitation, MM = Missing Value Source: NWS Daily Summary

Daily Weather History Graph

Daily Weather History Graph

Search for Another Location

Airport:

Trip Planner

Search our weather history database for the weather conditions in past years. The results will help you decide how hot, cold, wet, or windy it might be!

Date:

Astronomy

Nov. 23, 2013 Rise Set
Actual Time 7:43 AM AKST 3:33 PM AKST
Civil Twilight 7:00 AM AKST 4:17 PM AKST
Nautical Twilight 6:13 AM AKST 5:03 PM AKST
Astronomical Twilight 5:29 AM AKST 5:47 PM AKST
Moon 9:35 PM AKST (11/23) 11:41 AM AKST (11/23)
Length of Visible Light 9h 17m
Length of Day
7h 50m
Waning Gibbous, 68% of the Moon is Illuminated
Nov 23
Waning Gibbous
Nov 25
Last Quarter
Dec 2
New
Dec 9
First Quarter
Dec 17
Full

Hourly Weather History & Observations

Time (AKST) Temp. Windchill Dew Point Humidity Pressure Visibility Wind Dir Wind Speed Gust Speed Precip Events Conditions
12:53 AM 44.1 °F 40.8 °F 41.0 °F 89% 29.90 in 7.0 mi Variable 5.8 mph - 0.09 in Rain Rain
1:00 AM 44.1 °F 40.8 °F 41.0 °F 89% 29.89 in 7.0 mi South 5.8 mph - 0.02 in Rain Rain
1:53 AM 44.1 °F 40.8 °F 39.9 °F 85% 29.89 in 7.0 mi Variable 5.8 mph - 0.09 in Rain Light Rain
3:53 AM 42.1 °F 40.2 °F 39.9 °F 92% 29.90 in 6.0 mi Variable 3.5 mph - 0.03 in Rain Light Rain
4:53 AM 42.1 °F - 39.9 °F 92% 29.91 in 9.0 mi Calm Calm - 0.01 in Rain Light Rain
5:32 AM 42.1 °F - 41.0 °F 96% 29.91 in 10.0 mi Calm Calm - 0.01 in Rain Light Rain
5:39 AM 42.1 °F 40.2 °F 39.9 °F 92% 29.91 in 10.0 mi Variable 3.5 mph - 0.01 in Rain Light Rain
5:53 AM 42.1 °F 40.2 °F 41.0 °F 96% 29.91 in 10.0 mi Variable 3.5 mph - 0.01 in Rain Light Rain
6:53 AM 43.0 °F - 42.1 °F 97% 29.93 in 10.0 mi Calm Calm - 0.01 in   Overcast
7:53 AM 43.0 °F - 42.1 °F 97% 29.95 in 10.0 mi Calm Calm - N/A   Overcast
8:37 AM 44.1 °F - 43.0 °F 96% 29.96 in 3.0 mi Calm Calm - 0.00 in Rain Light Rain
8:41 AM 44.1 °F - 43.0 °F 96% 29.96 in 1.8 mi Calm Calm - 0.01 in Rain Light Rain
8:46 AM 44.1 °F - 43.0 °F 96% 29.96 in 1.2 mi Calm Calm - 0.02 in Rain Rain
8:53 AM 44.1 °F - 43.0 °F 96% 29.97 in 1.2 mi Calm Calm - 0.04 in Rain Rain
8:59 AM 44.1 °F - 43.0 °F 96% 29.96 in 2.0 mi Calm Calm - 0.00 in Rain Light Rain
9:08 AM 44.1 °F 42.5 °F 43.0 °F 96% 29.97 in 3.0 mi Variable 3.5 mph - 0.01 in Rain Light Rain
9:53 AM 46.0 °F 43.9 °F 45.0 °F 96% 30.00 in 9.0 mi Variable 4.6 mph - 0.02 in   Overcast
10:11 AM 46.9 °F - 46.0 °F 97% 30.00 in 10.0 mi SSW 4.6 mph - 0.00 in   Overcast
10:18 AM 48.0 °F - 46.0 °F 93% 30.01 in 10.0 mi SSW 4.6 mph - 0.00 in   Overcast
10:39 AM 46.9 °F - 46.9 °F 100% 30.01 in 1.8 mi SW 5.8 mph - 0.02 in Rain Light Rain
10:43 AM 46.9 °F - 46.9 °F 100% 30.01 in 1.0 mi SSW 8.1 mph - 0.04 in Rain Rain
10:51 AM 46.4 °F 41.9 °F 46.4 °F 100% 30.01 in 2.0 mi SSW 9.2 mph - 0.04 in Rain Light Rain
10:53 AM 46.9 °F - 46.0 °F 97% 30.02 in 4.0 mi SSW 8.1 mph - 0.04 in Rain Light Rain
11:09 AM 46.9 °F - 46.0 °F 97% 30.03 in 3.0 mi WSW 10.4 mph - 0.01 in Rain Light Rain
11:17 AM 46.0 °F 41.4 °F 46.0 °F 100% 30.03 in 2.0 mi West 9.2 mph 20.7 mph 0.01 in Rain Light Rain
11:29 AM 45.0 °F 40.1 °F 44.1 °F 97% 30.04 in 4.0 mi West 9.2 mph 18.4 mph 0.02 in Rain Light Rain
11:37 AM 45.0 °F 40.6 °F 44.1 °F 97% 30.04 in 10.0 mi WSW 8.1 mph 18.4 mph 0.02 in Rain Light Rain
11:53 AM 45.0 °F 41.2 °F 44.1 °F 97% 30.06 in 10.0 mi WSW 6.9 mph - 0.02 in   Overcast
12:19 PM 45.0 °F 41.2 °F 44.1 °F 97% 30.07 in 10.0 mi SW 6.9 mph - 0.00 in Rain Light Rain
12:30 PM 45.0 °F 41.2 °F 44.1 °F 97% 30.08 in 10.0 mi SSW 6.9 mph - 0.00 in Rain Light Rain
12:50 PM 44.6 °F 39.7 °F 42.8 °F 93% 30.09 in 10.0 mi West 9.2 mph - 0.00 in   Overcast
12:53 PM 44.1 °F 40.8 °F 42.1 °F 93% 30.10 in 10.0 mi WSW 5.8 mph - 0.00 in   Overcast
1:53 PM 42.1 °F - 39.9 °F 92% 30.13 in 10.0 mi Calm Calm - 0.01 in   Overcast
2:37 PM 43.0 °F - 41.0 °F 93% 30.15 in 10.0 mi Calm Calm - N/A   Overcast
2:53 PM 42.1 °F - 39.9 °F 92% 30.16 in 10.0 mi Calm Calm - N/A   Overcast
3:53 PM 37.0 °F 34.5 °F 34.0 °F 89% 30.18 in 9.0 mi SSE 3.5 mph - N/A   Partly Cloudy
5:53 PM 33.1 °F - 32.0 °F 96% 30.20 in 8.0 mi Calm Calm - N/A   Clear
6:53 PM 32.0 °F - 30.9 °F 96% 30.22 in 9.0 mi Calm Calm - N/A   Clear
7:53 PM 30.9 °F - 28.9 °F 92% 30.22 in 10.0 mi Calm Calm - N/A   Clear
8:53 PM 30.0 °F - 28.9 °F 96% 30.23 in 9.0 mi Calm Calm - N/A   Clear
9:53 PM 32.0 °F 26.4 °F 30.9 °F 96% 30.22 in 10.0 mi North 5.8 mph - N/A   Clear
10:53 PM 35.1 °F - 30.9 °F 85% 30.23 in 10.0 mi Calm Calm - N/A   Clear
11:53 PM 32.0 °F - 30.0 °F 92% 30.23 in 10.0 mi Calm Calm - N/A   Clear